Hebbronville, TX

8:07 AM CDT on March 23, 2017 (GMT -0500)
Hogg County

Weather History for KHBV - March, 2013

Change the Weather History Date:

Monday, March 4, 2013

  Actual Average (KALI) Record (KALI)
Temperature  
Mean Temperature 72 °F -  
Max Temperature 93 °F 72 °F 93 °F (2013)
Min Temperature 52 °F 51 °F 25 °F (2002)
Cooling Degree Days 8    
Growing Degree Days 22 (Base 50)    
Moisture  
Dew Point 37 °F    
Average Humidity 47    
Maximum Humidity 85    
Minimum Humidity 4    
Precipitation  
Precipitation 0.00 in - - ()
Sea Level Pressure  
Sea Level Pressure 29.86 in    
Wind  
Wind Speed 12 mph (SSE)    
Max Wind Speed 17 mph    
Max Gust Speed 22 mph    
Visibility 10 miles    
Events      
Averages and records for this station are not official NWS values.
T = Trace of Precipitation, MM = Missing Value Source: NWS Daily Summary

Daily Weather History Graph

Daily Weather History Graph

Search for Another Location

Airport or City:

Trip Planner

Search our weather history database for the weather conditions in past years. The results will help you decide how hot, cold, wet, or windy it might be!

Date:

Astronomy

Mar. 04, 2013 Rise Set
Actual Time 6:55 AM CST 6:37 PM CST
Civil Twilight 6:32 AM CST 7:01 PM CST
Nautical Twilight 6:05 AM CST 7:28 PM CST
Astronomical Twilight 5:38 AM CST 7:55 PM CST
Moon 12:45 AM CST (3/4) 11:42 AM CST (3/4)
Length of Visible Light 12h 28m
Length of Day
11h 41m
Waning Gibbous, 52% of the Moon is Illuminated
Mar 4
Waning Gibbous
Mar 4
Last Quarter
Mar 11
New
Mar 19
First Quarter
Mar 27
Full

Hourly Weather History & Observations

Time (CST) Temp. Dew Point Humidity Pressure Visibility Wind Dir Wind Speed Gust Speed Precip Events Conditions
12:15 AM 60.8 °F 47.8 °F 62% 29.99 in 10.0 mi SSE 15.0 mph 19.6 mph N/A   Clear
12:35 AM 60.4 °F 48.2 °F 64% 29.99 in 10.0 mi SSE 16.1 mph 21.9 mph N/A   Clear
12:55 AM 60.3 °F 48.4 °F 65% 29.98 in 10.0 mi SSE 13.8 mph 19.6 mph N/A   Clear
1:15 AM 60.1 °F 48.6 °F 66% 29.97 in 10.0 mi SSE 13.8 mph 19.6 mph N/A   Clear
1:35 AM 59.9 °F 48.9 °F 67% 29.96 in 10.0 mi South 12.7 mph 19.6 mph N/A   Clear
1:55 AM 59.9 °F 49.1 °F 67% 29.95 in 10.0 mi SSE 11.5 mph 21.9 mph N/A   Clear
2:15 AM 59.7 °F 49.3 °F 68% 29.95 in 10.0 mi SSE 13.8 mph 17.3 mph N/A   Clear
2:35 AM 59.5 °F 49.5 °F 69% 29.94 in 10.0 mi SSE 13.8 mph 19.6 mph N/A   Clear
3:15 AM 58.8 °F 49.8 °F 72% 29.93 in 10.0 mi SSE 11.5 mph - N/A   Clear
3:35 AM 58.5 °F 50.0 °F 73% 29.92 in 10.0 mi South 12.7 mph 17.3 mph N/A   Clear
3:55 AM 58.1 °F 50.0 °F 74% 29.91 in 10.0 mi SSE 12.7 mph - N/A   Clear
4:15 AM 57.6 °F 50.0 °F 76% 29.90 in 10.0 mi SSE 10.4 mph - N/A   Clear
4:35 AM 57.2 °F 50.0 °F 77% 29.90 in 10.0 mi SSE 10.4 mph - N/A   Clear
4:55 AM 56.8 °F 50.0 °F 78% 29.90 in 10.0 mi SSE 11.5 mph - N/A   Clear
5:15 AM 56.5 °F 49.6 °F 78% 29.90 in 10.0 mi SSE 9.2 mph - N/A   Clear
5:35 AM 55.9 °F 49.6 °F 79% 29.90 in 10.0 mi SSE 8.1 mph - N/A   Clear
6:15 AM 54.7 °F 49.3 °F 82% 29.91 in 10.0 mi South 6.9 mph - N/A   Clear
6:35 AM 54.1 °F 49.1 °F 83% 29.91 in 10.0 mi SSE 5.8 mph - N/A   Clear
6:55 AM 53.2 °F 48.6 °F 84% 29.91 in 10.0 mi SSE 5.8 mph - N/A   Clear
7:15 AM 52.7 °F 48.4 °F 85% 29.92 in 10.0 mi SSE 5.8 mph - N/A   Clear
7:35 AM 53.2 °F 48.7 °F 85% 29.92 in 10.0 mi SSE 6.9 mph - N/A   Clear
7:55 AM 54.9 °F 49.3 °F 81% 29.92 in 10.0 mi SSE 9.2 mph - N/A   Clear
8:15 AM 57.2 °F 49.6 °F 76% 29.92 in 10.0 mi SSE 11.5 mph - N/A   Clear
8:35 AM 59.2 °F 49.6 °F 71% 29.93 in 10.0 mi South 10.4 mph - N/A   Clear
8:55 AM 61.2 °F 49.5 °F 65% 29.93 in 10.0 mi South 13.8 mph - N/A   Clear
9:15 AM 63.0 °F 49.1 °F 61% 29.93 in 10.0 mi South 11.5 mph - N/A   Clear
9:35 AM 64.8 °F 48.6 °F 56% 29.92 in 10.0 mi SSE 12.7 mph - N/A   Clear
9:55 AM 66.6 °F 47.8 °F 51% 29.91 in 10.0 mi SSE 11.5 mph - N/A   Clear
10:15 AM 69.1 °F 47.1 °F 45% 29.91 in 10.0 mi SSE 10.4 mph - N/A   Clear
10:35 AM 71.1 °F 46.2 °F 41% 29.90 in 10.0 mi SSE 10.4 mph 17.3 mph N/A   Clear
10:55 AM 72.9 °F 44.8 °F 37% 29.89 in 10.0 mi SSE 13.8 mph - N/A   Clear
11:15 AM 75.0 °F 42.8 °F 32% 29.89 in 10.0 mi SSE 11.5 mph 17.3 mph N/A   Clear
11:55 AM 79.7 °F 38.5 °F 23% 29.87 in 7.0 mi South 17.3 mph - N/A   Clear
12:15 PM 81.5 °F 36.9 °F 20% 29.86 in 7.0 mi SSE 12.7 mph - N/A   Clear
12:55 PM 84.6 °F 32.9 °F 16% 29.83 in 10.0 mi South 12.7 mph 17.3 mph N/A   Clear
1:15 PM 85.8 °F 30.9 °F 14% 29.82 in 7.0 mi SSW 11.5 mph - N/A   Clear
1:35 PM 87.4 °F 28.0 °F 12% 29.81 in 7.0 mi SSW 10.4 mph 17.3 mph N/A   Clear
1:55 PM 88.5 °F 24.4 °F 10% 29.80 in 10.0 mi South 10.4 mph - N/A   Clear
2:15 PM 89.6 °F 18.5 °F 7% 29.79 in 5.0 mi SSE 12.7 mph 16.1 mph N/A   Haze
2:35 PM 90.7 °F 12.4 °F 5% 29.78 in 10.0 mi South 6.9 mph - N/A   Clear
2:55 PM 91.8 °F 9.7 °F 5% 29.77 in 10.0 mi SSE 6.9 mph - N/A   Clear
3:35 PM 92.3 °F -0.6 °F 4% 29.76 in 10.0 mi South 3.5 mph - N/A   Clear
3:55 PM 92.8 °F -9.2 °F 4% 29.76 in 10.0 mi SW 6.9 mph - N/A   Clear
4:15 PM 93.0 °F -16.4 °F 4% 29.75 in 10.0 mi ESE 3.5 mph - N/A   Clear
4:35 PM 93.4 °F -17.7 °F 4% 29.75 in 10.0 mi SSE 5.8 mph - N/A   Clear
4:55 PM 93.2 °F -17.5 °F 4% 29.75 in 10.0 mi South 8.1 mph - N/A   Clear
5:15 PM 93.2 °F -16.8 °F 4% 29.74 in 10.0 mi South 9.2 mph - N/A   Clear
5:35 PM 92.7 °F -13.4 °F 4% 29.75 in 10.0 mi South 9.2 mph - N/A   Clear
5:55 PM 91.9 °F -2.6 °F 4% 29.75 in 10.0 mi SE 8.1 mph - N/A   Clear
6:15 PM 90.5 °F 5.4 °F 4% 29.75 in 10.0 mi SE 8.1 mph - N/A   Clear
6:55 PM 84.7 °F 21.7 °F 10% 29.76 in 10.0 mi SE 6.9 mph - N/A   Clear
7:15 PM 82.6 °F 25.9 °F 13% 29.76 in 10.0 mi ESE 12.7 mph - N/A   Clear
7:35 PM 81.3 °F 35.4 °F 19% 29.78 in 10.0 mi SE 11.5 mph 18.4 mph N/A   Clear
7:55 PM 79.5 °F 45.0 °F 29% 29.79 in 10.0 mi SE 15.0 mph - N/A   Clear
8:35 PM 75.4 °F 49.6 °F 40% 29.80 in 10.0 mi SE 13.8 mph 19.6 mph N/A   Clear
8:55 PM 73.8 °F 51.1 °F 45% 29.81 in 10.0 mi SSE 11.5 mph - N/A   Clear
9:15 PM 72.3 °F 51.8 °F 48% 29.82 in 10.0 mi SSE 12.7 mph - N/A   Clear
9:35 PM 71.1 °F 52.5 °F 52% 29.82 in 10.0 mi SSE 11.5 mph - N/A   Clear
9:55 PM 70.0 °F 53.4 °F 56% 29.83 in 10.0 mi SE 10.4 mph 17.3 mph N/A   Clear
10:15 PM 68.5 °F 54.3 °F 60% 29.83 in 10.0 mi SSE 11.5 mph 17.3 mph N/A   Clear
10:35 PM 67.6 °F 55.2 °F 64% 29.83 in 10.0 mi SE 11.5 mph 17.3 mph N/A   Clear
10:55 PM 66.7 °F 55.4 °F 67% 29.83 in 10.0 mi SSE 11.5 mph 17.3 mph N/A   Clear
11:15 PM 65.7 °F 55.4 °F 69% 29.83 in 10.0 mi SSE 9.2 mph - N/A   Clear
11:35 PM 64.8 °F 55.4 °F 72% 29.82 in 10.0 mi SSE 11.5 mph - N/A   Clear
11:55 PM 64.2 °F 55.4 °F 73% 29.82 in 10.0 mi SSE 10.4 mph - N/A   Clear